This is the latest recevied weather packets stored in our database for station/object KB3KBR-WX. If no packets are shown the sender has not sent any weather packets the latest 10 day(s).
| Time | Temp. | Humidity | Pressure | Rain* | Wind** | Luminosity | Snow |
|---|---|---|---|---|---|---|---|
| 1778095381 | 10.56° C | 76% | 1007.7 hPa | 0 mm | - | - | - |
| 1778095052 | 10.56° C | 75% | 1007.7 hPa | 0 mm | - | - | - |
| 1778094722 | 10.56° C | 74% | 1007.6 hPa | 0 mm | - | - | - |
| 1778094421 | 11.11° C | 74% | 1007.4 hPa | 0 mm | - | - | - |
| 1778094091 | 11.11° C | 73% | 1007.4 hPa | 0 mm | - | - | - |
| 1778093761 | 11.11° C | 76% | 1007.4 hPa | 0 mm | - | - | - |
| 1778093461 | 11.11° C | 77% | 1007.4 hPa | 0 mm | - | - | - |
| 1778093131 | 10.56° C | 78% | 1007.3 hPa | 0 mm | - | - | - |
| 1778092801 | 10.56° C | 79% | 1007.3 hPa | 0 mm | - | - | - |
| 1778092470 | 10.56° C | 79% | 1007.4 hPa | 0 mm | - | - | - |
| 1778092171 | 10.56° C | 80% | 1007.2 hPa | 0 mm | - | - | - |
| 1778091871 | 10.56° C | 80% | 1007.4 hPa | 0 mm | - | - | - |
| 1778091540 | 11.11° C | 80% | 1007.4 hPa | 0 mm | - | - | - |
| 1778091211 | 10.56° C | 82% | 1007.4 hPa | 0 mm | - | - | - |
| 1778090911 | 10.56° C | 83% | 1007.3 hPa | 0 mm | - | - | - |
| 1778090580 | 10° C | 82% | 1007.3 hPa | 0 mm | - | - | - |
| 1778090250 | 10° C | 82% | 1007.2 hPa | 0 mm | - | - | - |
| 1778089951 | 10° C | 82% | 1007.3 hPa | 0 mm | - | - | - |
| 1778089620 | 10° C | 80% | 1007.1 hPa | 0 mm | - | - | - |
| 1778089290 | 10° C | 81% | 1007.3 hPa | 0 mm | - | - | - |
| 1778088961 | 10° C | 79% | 1007.1 hPa | 0 mm | - | - | - |
| 1778088630 | 10.56° C | 82% | 1007 hPa | 0 mm | - | - | - |
| 1778088301 | 10.56° C | 82% | 1007 hPa | 0 mm | - | - | - |
| 1778088001 | 10.56° C | 81% | 1007 hPa | 0 mm | - | - | - |
| 1778087671 | 10.56° C | 81% | 1007 hPa | 0 mm | - | - | - |
* Rain latest hour (hover to see other rain measurements)
** Current wind speed in m/s (hover to see current wind gust speed)